START_TIME,STEP,MOV.,A46,t_acc.,A13,t_acc.,M47,t_acc.,A17,t_acc.,A28,t_acc.,M38,t_acc.
1979-03-06 08:18:24.860 ,0,0,,0,0.,4.8,0.,4.8,,0,0.,4.8,0.,4.8
1979-03-06 08:18:29.660 ,0,0,,0,0.,4.8,0.,4.8,,0,0.,4.8,0.,4.8
1979-03-06 08:18:34.460 ,0,0,,0,0.,4.8,0.,4.8,,0,0.,4.8,0.,4.8
1979-03-06 08:18:39.260 ,0,0,,0,,0,,0,,0,,0,,0
1979-03-06 08:18:44.060 ,0,0,,0,3.,4.8,0.,4.8,,0,0.,4.8,0.,4.8
1979-03-06 08:18:47.060 ,7,0,,0,0.,4.8,0.,4.8,,0,0.,4.8,1.,4.8
1979-03-06 08:18:51.860 ,7,0,,0,1.,4.8,0.,4.8,,0,0.,4.8,1.,4.8
1979-03-06 08:18:56.660 ,7,0,,0,1.,4.8,0.,4.8,,0,0.,4.8,0.,4.8
1979-03-06 08:19:01.460 ,7,0,,0,0.,4.8,0.,4.8,,0,0.,4.8,0.,4.8
1979-03-06 08:19:06.260 ,7,0,,0,1.,4.8,0.,4.8,,0,0.,4.8,0.,4.8
1979-03-06 08:19:11.060 ,4,0,,0,0.,4.8,0.,4.8,,0,0.,4.8,0.,4.8
1979-03-06 08:19:15.860 ,4,0,,0,0.,4.8,0.,4.8,,0,0.,4.8,0.,4.8
1979-03-06 08:19:20.660 ,4,0,,0,0.,4.8,0.,4.8,,0,0.,4.8,0.,4.8
1979-03-06 08:19:25.460 ,4,0,,0,2.,4.8,0.,4.8,,0,0.,4.8,0.,4.8
1979-03-06 08:19:30.260 ,4,0,,0,1.,4.8,0.,4.8,,0,0.,4.8,1.,4.8
1979-03-06 08:19:35.060 ,0,0,,0,1.,4.8,0.,4.8,,0,0.,4.8,1.,4.8
1979-03-06 08:19:39.860 ,0,0,,0,1.,4.8,0.,4.8,,0,0.,4.8,0.,4.8
1979-03-06 08:19:44.660 ,0,0,,0,0.,4.8,0.,4.8,,0,0.,4.8,0.,4.8
1979-03-06 08:19:49.460 ,0,0,,0,1.,4.8,0.,4.8,,0,0.,4.8,0.,4.8
1979-03-06 08:19:54.260 ,0,0,,0,0.,4.8,0.,4.8,,0,0.,4.8,0.,4.8
1979-03-06 08:19:59.060 ,3,0,,0,1.,4.8,0.,4.8,,0,0.,4.8,0.,4.8
1979-03-06 08:20:03.860 ,3,0,,0,0.,4.8,0.,4.8,,0,0.,4.8,0.,4.8
1979-03-06 08:20:08.660 ,3,0,,0,0.,4.8,0.,4.8,,0,0.,4.8,0.,4.8
1979-03-06 08:20:13.460 ,3,0,,0,1.,4.8,0.,4.8,,0,0.,4.8,0.,4.8
1979-03-06 08:20:18.260 ,3,0,,0,3.,4.8,1.,4.8,,0,0.,4.8,1.,4.8
1979-03-06 08:20:23.060 ,7,0,,0,3.,4.8,1.,4.8,,0,0.,4.8,0.,4.8
1979-03-06 08:20:27.860 ,7,0,,0,0.,4.8,0.,4.8,,0,0.,4.8,1.,4.8
1979-03-06 08:20:32.660 ,7,0,,0,2.,4.8,0.,4.8,,0,0.,4.8,0.,4.8
1979-03-06 08:20:37.460 ,7,0,,0,0.,4.8,0.,4.8,,0,0.,4.8,0.,4.8
1979-03-06 08:20:42.260 ,7,0,,0,0.,4.8,0.,4.8,,0,0.,4.8,0.,4.8
1979-03-06 08:20:47.060 ,4,0,,0,0.,4.8,0.,4.8,,0,0.,4.8,0.,4.8
1979-03-06 08:20:51.860 ,4,0,,0,0.,4.8,0.,4.8,,0,0.,4.8,0.,4.8
1979-03-06 08:20:56.660 ,4,0,,0,0.,4.8,0.,4.8,,0,0.,4.8,0.,4.8
1979-03-06 08:21:01.460 ,4,0,,0,1.,4.8,0.,4.8,,0,0.,4.8,2.,4.8
1979-03-06 08:21:06.260 ,4,0,,0,0.,4.8,0.,4.8,,0,0.,4.8,0.,4.8
1979-03-06 08:21:11.060 ,0,0,,0,0.,4.8,0.,4.8,,0,0.,4.8,0.,4.8
1979-03-06 08:21:15.860 ,0,0,,0,0.,4.8,0.,4.8,,0,0.,4.8,0.,4.8
1979-03-06 08:21:20.660 ,0,0,,0,0.,4.8,0.,4.8,,0,0.,4.8,3.,4.8
1979-03-06 08:21:25.460 ,0,0,,0,0.,4.8,0.,4.8,,0,0.,4.8,0.,4.8
1979-03-06 08:21:30.260 ,0,0,,0,0.,4.8,0.,4.8,,0,0.,4.8,0.,4.8
1979-03-06 08:21:35.060 ,3,0,,0,0.,4.8,0.,4.8,,0,0.,4.8,0.,4.8
1979-03-06 08:21:39.860 ,3,0,,0,0.,4.8,0.,4.8,,0,0.,4.8,0.,4.8
1979-03-06 08:21:44.660 ,3,0,,0,0.,4.8,0.,4.8,,0,0.,4.8,0.,4.8
1979-03-06 08:21:49.460 ,3,0,,0,0.,4.8,0.,4.8,,0,0.,4.8,0.,4.8
1979-03-06 08:21:54.260 ,3,0,,0,2.,4.8,0.,4.8,,0,0.,4.8,1.,4.8
1979-03-06 08:21:59.060 ,7,0,,0,1.,4.8,0.,4.8,,0,0.,4.8,0.,4.8
1979-03-06 08:22:03.860 ,7,0,,0,1.,4.8,1.,4.8,,0,0.,4.8,0.,4.8
1979-03-06 08:22:08.660 ,7,0,,0,1.,4.8,0.,4.8,,0,0.,4.8,0.,4.8
1979-03-06 08:22:13.460 ,7,0,,0,1.,4.8,0.,4.8,,0,0.,4.8,0.,4.8
1979-03-06 08:22:18.260 ,7,0,,0,1.,4.8,0.,4.8,,0,0.,4.8,0.,4.8
1979-03-06 08:22:23.060 ,4,0,,0,0.,4.8,0.,4.8,,0,0.,4.8,0.,4.8
1979-03-06 08:22:27.860 ,4,0,,0,0.,4.8,0.,4.8,,0,0.,4.8,0.,4.8
1979-03-06 08:22:32.660 ,4,0,,0,0.,4.8,0.,4.8,,0,0.,4.8,0.,4.8
1979-03-06 08:22:37.460 ,4,0,,0,0.,4.8,0.,4.8,,0,0.,4.8,1.,4.8
1979-03-06 08:22:42.260 ,4,0,,0,1.,4.8,0.,4.8,,0,0.,4.8,1.,4.8
1979-03-06 08:22:47.060 ,0,0,,0,0.,4.8,0.,4.8,,0,0.,4.8,0.,4.8
1979-03-06 08:22:51.860 ,0,0,,0,1.,4.8,1.,4.8,,0,0.,4.8,1.,4.8
1979-03-06 08:22:56.660 ,0,0,,0,0.,4.8,0.,4.8,,0,0.,4.8,0.,4.8
1979-03-06 08:23:01.460 ,0,0,,0,0.,4.8,0.,4.8,,0,0.,4.8,0.,4.8
1979-03-06 08:23:06.260 ,0,0,,0,1.,4.8,0.,4.8,,0,0.,4.8,0.,4.8
1979-03-06 08:23:11.060 ,3,0,,0,0.,4.8,0.,4.8,,0,0.,4.8,0.,4.8
1979-03-06 08:23:15.860 ,3,0,,0,0.,4.8,0.,4.8,,0,0.,4.8,0.,4.8
1979-03-06 08:23:20.660 ,3,0,,0,0.,4.8,0.,4.8,,0,0.,4.8,0.,4.8
1979-03-06 08:23:25.460 ,3,0,,0,0.,4.8,0.,4.8,,0,0.,4.8,0.,4.8
1979-03-06 08:23:30.260 ,3,0,,0,0.,4.8,0.,4.8,,0,0.,4.8,1.,4.8
1979-03-06 08:23:35.060 ,7,0,,0,1.,4.8,0.,4.8,,0,0.,4.8,0.,4.8
1979-03-06 08:23:39.860 ,7,0,,0,1.,4.8,0.,4.8,,0,0.,4.8,0.,4.8
1979-03-06 08:23:44.660 ,7,0,,0,0.,4.8,0.,4.8,,0,0.,4.8,1.,4.8
1979-03-06 08:23:49.460 ,7,0,,0,0.,4.8,0.,4.8,,0,0.,4.8,0.,4.8
1979-03-06 08:23:54.260 ,7,0,,0,0.,4.8,0.,4.8,,0,0.,4.8,0.,4.8
1979-03-06 08:23:59.060 ,4,0,,0,0.,4.8,0.,4.8,,0,0.,4.8,0.,4.8
1979-03-06 08:24:03.860 ,4,0,,0,0.,4.8,0.,4.8,,0,0.,4.8,0.,4.8
1979-03-06 08:24:08.660 ,4,0,,0,0.,4.8,0.,4.8,,0,0.,4.8,0.,4.8
1979-03-06 08:24:13.460 ,4,0,,0,1.,4.8,0.,4.8,,0,0.,4.8,0.,4.8
1979-03-06 08:24:18.260 ,4,0,,0,2.,4.8,0.,4.8,,0,0.,4.8,0.,4.8
1979-03-06 08:24:23.060 ,0,0,,0,2.,4.8,0.,4.8,,0,0.,4.8,0.,4.8
1979-03-06 08:24:27.860 ,0,0,,0,2.,4.8,0.,4.8,,0,0.,4.8,0.,4.8
1979-03-06 08:24:32.660 ,0,0,,0,0.,4.8,0.,4.8,,0,0.,4.8,0.,4.8
1979-03-06 08:24:37.460 ,0,0,,0,1.,4.8,0.,4.8,,0,0.,4.8,0.,4.8
1979-03-06 08:24:42.260 ,0,0,,0,0.,4.8,0.,4.8,,0,0.,4.8,0.,4.8
1979-03-06 08:24:47.060 ,3,0,,0,0.,4.8,0.,4.8,,0,0.,4.8,0.,4.8
1979-03-06 08:24:51.860 ,3,0,,0,1.,4.8,0.,4.8,,0,0.,4.8,0.,4.8
1979-03-06 08:24:56.660 ,3,0,,0,1.,4.8,0.,4.8,,0,0.,4.8,0.,4.8
1979-03-06 08:25:01.460 ,3,0,,0,2.,4.8,0.,4.8,,0,0.,4.8,0.,4.8
1979-03-06 08:25:06.260 ,3,0,,0,0.,4.8,0.,4.8,,0,0.,4.8,0.,4.8
1979-03-06 08:25:11.060 ,7,0,,0,0.,4.8,0.,4.8,,0,0.,4.8,0.,4.8
1979-03-06 08:25:15.860 ,7,0,,0,0.,4.8,0.,4.8,,0,0.,4.8,0.,4.8
1979-03-06 08:25:20.660 ,7,0,,0,1.,4.8,0.,4.8,,0,0.,4.8,1.,4.8
1979-03-06 08:25:25.460 ,7,0,,0,0.,4.8,0.,4.8,,0,0.,4.8,0.,4.8
1979-03-06 08:25:30.260 ,7,0,,0,1.,4.8,0.,4.8,,0,0.,4.8,0.,4.8
1979-03-06 08:25:35.060 ,4,0,,0,0.,4.8,0.,4.8,,0,0.,4.8,0.,4.8
1979-03-06 08:25:39.860 ,4,0,,0,0.,4.8,0.,4.8,,0,0.,4.8,0.,4.8
1979-03-06 08:25:44.660 ,4,0,,0,0.,4.8,0.,4.8,,0,0.,4.8,0.,4.8
1979-03-06 08:25:49.460 ,4,0,,0,1.,4.8,1.,4.8,,0,0.,4.8,0.,4.8
1979-03-06 08:25:54.260 ,4,0,,0,1.,4.8,0.,4.8,,0,0.,4.8,0.,4.8
1979-03-06 08:25:59.060 ,0,0,,0,3.,4.8,0.,4.8,,0,0.,4.8,0.,4.8
1979-03-06 08:26:03.860 ,0,0,,0,1.,4.8,0.,4.8,,0,0.,4.8,1.,4.8
1979-03-06 08:26:08.660 ,0,0,,0,0.,4.8,0.,4.8,,0,0.,4.8,1.,4.8
1979-03-06 08:26:13.460 ,0,0,,0,1.,4.8,0.,4.8,,0,0.,4.8,0.,4.8
1979-03-06 08:26:18.260 ,0,0,,0,0.,4.8,0.,4.8,,0,0.,4.8,0.,4.8
1979-03-06 08:26:23.060 ,3,0,,0,0.,4.8,0.,4.8,,0,0.,4.8,0.,4.8
1979-03-06 08:26:27.860 ,3,0,,0,0.,4.8,0.,4.8,,0,0.,4.8,0.,4.8
1979-03-06 08:26:32.660 ,3,0,,0,0.,4.8,0.,4.8,,0,0.,4.8,0.,4.8
1979-03-06 08:26:37.460 ,3,0,,0,0.,4.8,0.,4.8,,0,0.,4.8,0.,4.8
1979-03-06 08:26:42.260 ,3,0,,0,1.,4.8,0.,4.8,,0,0.,4.8,2.,4.8
1979-03-06 08:26:47.060 ,7,0,,0,1.,4.8,0.,4.8,,0,0.,4.8,0.,4.8
1979-03-06 08:26:51.860 ,7,0,,0,0.,4.8,0.,4.8,,0,0.,4.8,0.,4.8
1979-03-06 08:26:56.660 ,7,0,,0,1.,4.8,0.,4.8,,0,0.,4.8,0.,4.8
1979-03-06 08:27:01.460 ,7,0,,0,0.,4.8,0.,4.8,,0,0.,4.8,1.,4.8
1979-03-06 08:27:06.260 ,7,0,,0,0.,4.8,0.,4.8,,0,0.,4.8,0.,4.8
1979-03-06 08:27:11.060 ,4,0,,0,0.,4.8,0.,4.8,,0,0.,4.8,0.,4.8
1979-03-06 08:27:15.860 ,4,0,,0,0.,4.8,0.,4.8,,0,0.,4.8,0.,4.8
1979-03-06 08:27:20.660 ,4,0,,0,0.,4.8,0.,4.8,,0,0.,4.8,1.,4.8
1979-03-06 08:27:25.460 ,4,0,,0,1.,4.8,0.,4.8,,0,0.,4.8,0.,4.8
1979-03-06 08:27:30.260 ,4,0,,0,0.,4.8,0.,4.8,,0,0.,4.8,0.,4.8
1979-03-06 08:27:35.060 ,0,0,,0,2.,4.8,0.,4.8,,0,0.,4.8,0.,4.8
1979-03-06 08:27:39.860 ,0,0,,0,0.,4.8,0.,4.8,,0,0.,4.8,0.,4.8
1979-03-06 08:27:44.660 ,0,0,,0,0.,4.8,0.,4.8,,0,0.,4.8,0.,4.8
1979-03-06 08:27:49.460 ,0,0,,0,1.,4.8,0.,4.8,,0,0.,4.8,0.,4.8
1979-03-06 08:27:54.260 ,0,0,,0,1.,4.8,0.,4.8,,0,0.,4.8,1.,4.8
1979-03-06 08:27:59.060 ,3,0,,0,1.,4.8,0.,4.8,,0,0.,4.8,0.,4.8
1979-03-06 08:28:03.860 ,3,0,,0,0.,4.8,0.,4.8,,0,0.,4.8,0.,4.8
1979-03-06 08:28:08.660 ,3,0,,0,0.,4.8,0.,4.8,,0,0.,4.8,0.,4.8
1979-03-06 08:28:13.460 ,3,0,,0,1.,4.8,0.,4.8,,0,0.,4.8,0.,4.8
1979-03-06 08:28:18.260 ,3,0,,0,3.,4.8,0.,4.8,,0,0.,4.8,0.,4.8
1979-03-06 08:28:23.060 ,7,0,,0,1.,4.8,0.,4.8,,0,0.,4.8,0.,4.8
1979-03-06 08:28:27.860 ,7,0,,0,0.,4.8,0.,4.8,,0,0.,4.8,0.,4.8
1979-03-06 08:28:32.660 ,7,0,,0,2.,4.8,0.,4.8,,0,0.,4.8,0.,4.8
1979-03-06 08:28:37.460 ,7,0,,0,0.,4.8,0.,4.8,,0,0.,4.8,1.,4.8
1979-03-06 08:28:42.260 ,7,0,,0,0.,4.8,0.,4.8,,0,0.,4.8,0.,4.8
1979-03-06 08:28:47.060 ,4,0,,0,0.,4.8,0.,4.8,,0,0.,4.8,0.,4.8
1979-03-06 08:28:51.860 ,4,0,,0,0.,4.8,0.,4.8,,0,0.,4.8,1.,4.8
1979-03-06 08:28:56.660 ,4,0,,0,0.,4.8,0.,4.8,,0,0.,4.8,0.,4.8
1979-03-06 08:29:01.460 ,4,0,,0,1.,4.8,0.,4.8,,0,0.,4.8,0.,4.8
1979-03-06 08:29:06.260 ,4,0,,0,2.,4.8,0.,4.8,,0,0.,4.8,0.,4.8
1979-03-06 08:29:11.060 ,0,0,,0,0.,4.8,0.,4.8,,0,0.,4.8,0.,4.8
1979-03-06 08:29:15.860 ,0,0,,0,0.,4.8,0.,4.8,,0,0.,4.8,0.,4.8
1979-03-06 08:29:20.660 ,0,0,,0,0.,4.8,0.,4.8,,0,0.,4.8,0.,4.8
1979-03-06 08:29:25.460 ,0,0,,0,0.,4.8,0.,4.8,,0,0.,4.8,0.,4.8
1979-03-06 08:29:30.260 ,0,0,,0,2.,4.8,0.,4.8,,0,0.,4.8,0.,4.8
1979-03-06 08:29:35.060 ,3,0,,0,0.,4.8,0.,4.8,,0,0.,4.8,0.,4.8
1979-03-06 08:29:39.860 ,3,0,,0,0.,4.8,0.,4.8,,0,0.,4.8,0.,4.8
1979-03-06 08:29:44.660 ,3,0,,0,0.,4.8,0.,4.8,,0,0.,4.8,0.,4.8
1979-03-06 08:29:49.460 ,3,0,,0,3.,4.8,0.,4.8,,0,0.,4.8,0.,4.8
1979-03-06 08:29:54.260 ,3,0,,0,5.,4.8,0.,4.8,,0,0.,4.8,0.,4.8
1979-03-06 08:29:59.060 ,7,0,,0,2.,4.8,0.,4.8,,0,0.,4.8,0.,4.8
1979-03-06 08:30:03.860 ,7,0,,0,1.,4.8,0.,4.8,,0,0.,4.8,0.,4.8
1979-03-06 08:30:08.660 ,7,0,,0,2.,4.8,1.,4.8,,0,0.,4.8,0.,4.8
1979-03-06 08:30:13.460 ,7,0,,0,0.,4.8,0.,4.8,,0,0.,4.8,0.,4.8
1979-03-06 08:30:18.260 ,7,0,,0,0.,4.8,0.,4.8,,0,0.,4.8,0.,4.8
1979-03-06 08:30:23.060 ,4,0,,0,0.,4.8,0.,4.8,,0,0.,4.8,0.,4.8
1979-03-06 08:30:27.860 ,4,0,,0,0.,4.8,0.,4.8,,0,0.,4.8,0.,4.8
1979-03-06 08:30:32.660 ,4,0,,0,0.,4.8,0.,4.8,,0,0.,4.8,1.,4.8
1979-03-06 08:30:37.460 ,4,0,,0,0.,4.8,0.,4.8,,0,0.,4.8,1.,4.8
1979-03-06 08:30:42.260 ,4,0,,0,0.,4.8,0.,4.8,,0,0.,4.8,0.,4.8
1979-03-06 08:30:47.060 ,0,0,,0,1.,4.8,0.,4.8,,0,0.,4.8,0.,4.8
1979-03-06 08:30:51.860 ,0,0,,0,2.,4.8,0.,4.8,,0,0.,4.8,0.,4.8
1979-03-06 08:30:56.660 ,0,0,,0,0.,4.8,0.,4.8,,0,0.,4.8,0.,4.8
1979-03-06 08:31:01.460 ,0,0,,0,0.,4.8,0.,4.8,,0,0.,4.8,0.,4.8
1979-03-06 08:31:06.260 ,0,0,,0,0.,4.8,0.,4.8,,0,0.,4.8,0.,4.8
1979-03-06 08:31:11.060 ,3,0,,0,0.,4.8,0.,4.8,,0,0.,4.8,0.,4.8
1979-03-06 08:31:15.860 ,3,0,,0,0.,4.8,0.,4.8,,0,0.,4.8,0.,4.8
1979-03-06 08:31:20.660 ,3,0,,0,0.,4.8,0.,4.8,,0,0.,4.8,0.,4.8
1979-03-06 08:31:25.460 ,3,0,,0,1.,4.8,0.,4.8,,0,0.,4.8,0.,4.8
1979-03-06 08:31:30.260 ,3,0,,0,1.,4.8,0.,4.8,,0,0.,4.8,0.,4.8
1979-03-06 08:31:35.060 ,7,0,,0,1.,4.8,0.,4.8,,0,0.,4.8,0.,4.8
1979-03-06 08:31:39.860 ,7,0,,0,0.,4.8,0.,4.8,,0,0.,4.8,0.,4.8
1979-03-06 08:31:44.660 ,7,0,,0,2.,4.8,2.,4.8,,0,0.,4.8,1.,4.8
1979-03-06 08:31:49.460 ,7,0,,0,0.,4.8,0.,4.8,,0,0.,4.8,0.,4.8
1979-03-06 08:31:54.260 ,7,0,,0,0.,4.8,0.,4.8,,0,0.,4.8,0.,4.8
1979-03-06 08:31:59.060 ,4,0,,0,0.,4.8,0.,4.8,,0,0.,4.8,0.,4.8
1979-03-06 08:32:03.860 ,4,0,,0,0.,4.8,0.,4.8,,0,0.,4.8,0.,4.8
1979-03-06 08:32:08.660 ,4,0,,0,0.,4.8,0.,4.8,,0,0.,4.8,1.,4.8
1979-03-06 08:32:13.460 ,4,0,,0,1.,4.8,0.,4.8,,0,0.,4.8,0.,4.8
1979-03-06 08:32:18.260 ,4,0,,0,0.,4.8,0.,4.8,,0,0.,4.8,0.,4.8
1979-03-06 08:32:23.060 ,0,0,,0,1.,4.8,0.,4.8,,0,0.,4.8,0.,4.8
1979-03-06 08:32:27.860 ,0,0,,0,2.,4.8,0.,4.8,,0,0.,4.8,1.,4.8
1979-03-06 08:32:32.660 ,0,0,,0,2.,4.8,0.,4.8,,0,0.,4.8,0.,4.8
1979-03-06 08:32:37.460 ,0,0,,0,0.,4.8,0.,4.8,,0,0.,4.8,0.,4.8
1979-03-06 08:32:42.260 ,0,0,,0,1.,4.8,0.,4.8,,0,0.,4.8,0.,4.8
1979-03-06 08:32:47.060 ,3,0,,0,0.,4.8,0.,4.8,,0,0.,4.8,0.,4.8
1979-03-06 08:32:51.860 ,3,0,,0,1.,4.8,0.,4.8,,0,0.,4.8,0.,4.8
1979-03-06 08:32:56.660 ,3,0,,0,1.,4.8,0.,4.8,,0,0.,4.8,0.,4.8
1979-03-06 08:33:01.460 ,3,0,,0,0.,4.8,0.,4.8,,0,0.,4.8,0.,4.8
1979-03-06 08:33:06.260 ,3,0,,0,0.,4.8,0.,4.8,,0,0.,4.8,0.,4.8
1979-03-06 08:33:11.060 ,7,0,,0,2.,4.8,0.,4.8,,0,0.,4.8,0.,4.8
1979-03-06 08:33:15.860 ,7,0,,0,1.,4.8,0.,4.8,,0,0.,4.8,0.,4.8
1979-03-06 08:33:20.660 ,7,0,,0,1.,4.8,0.,4.8,,0,0.,4.8,0.,4.8
1979-03-06 08:33:25.460 ,7,0,,0,0.,4.8,0.,4.8,,0,0.,4.8,0.,4.8
1979-03-06 08:33:30.260 ,7,0,,0,0.,4.8,0.,4.8,,0,0.,4.8,0.,4.8
1979-03-06 08:33:35.060 ,4,0,,0,0.,4.8,0.,4.8,,0,0.,4.8,0.,4.8
1979-03-06 08:33:39.860 ,4,0,,0,0.,4.8,0.,4.8,,0,0.,4.8,0.,4.8
1979-03-06 08:33:44.660 ,4,0,,0,0.,4.8,0.,4.8,,0,0.,4.8,0.,4.8
1979-03-06 08:33:49.460 ,4,0,,0,1.,4.8,0.,4.8,,0,0.,4.8,0.,4.8
1979-03-06 08:33:54.260 ,4,0,,0,2.,4.8,0.,4.8,,0,0.,4.8,0.,4.8
1979-03-06 08:33:59.060 ,0,0,,0,0.,4.8,0.,4.8,,0,0.,4.8,0.,4.8
1979-03-06 08:34:03.860 ,0,0,,0,3.,4.8,0.,4.8,,0,0.,4.8,0.,4.8
1979-03-06 08:34:08.660 ,0,0,,0,1.,4.8,0.,4.8,,0,0.,4.8,0.,4.8
1979-03-06 08:34:13.460 ,0,0,,0,0.,4.8,0.,4.8,,0,0.,4.8,0.,4.8
1979-03-06 08:34:18.260 ,0,0,,0,0.,4.8,0.,4.8,,0,0.,4.8,0.,4.8
1979-03-06 08:34:23.060 ,3,0,,0,0.,4.8,0.,4.8,,0,0.,4.8,0.,4.8
1979-03-06 08:34:27.860 ,3,0,,0,0.,4.8,0.,4.8,,0,0.,4.8,0.,4.8
1979-03-06 08:34:32.660 ,3,0,,0,0.,4.8,0.,4.8,,0,0.,4.8,1.,4.8
1979-03-06 08:34:37.460 ,3,0,,0,0.,4.8,0.,4.8,,0,0.,4.8,1.,4.8
1979-03-06 08:34:42.260 ,3,0,,0,1.,4.8,0.,4.8,,0,0.,4.8,0.,4.8
1979-03-06 08:34:47.060 ,7,0,,0,0.,4.8,0.,4.8,,0,0.,4.8,0.,4.8
1979-03-06 08:34:51.860 ,7,0,,0,1.,4.8,0.,4.8,,0,0.,4.8,0.,4.8
1979-03-06 08:34:56.660 ,7,0,,0,1.,4.8,0.,4.8,,0,0.,4.8,0.,4.8
1979-03-06 08:35:01.460 ,7,0,,0,0.,4.8,0.,4.8,,0,0.,4.8,0.,4.8
1979-03-06 08:35:06.260 ,7,0,,0,0.,4.8,0.,4.8,,0,0.,4.8,0.,4.8
1979-03-06 08:35:11.060 ,4,0,,0,0.,4.8,0.,4.8,,0,0.,4.8,0.,4.8
1979-03-06 08:35:15.860 ,4,0,,0,1.,4.8,0.,4.8,,0,0.,4.8,0.,4.8
1979-03-06 08:35:20.660 ,4,0,,0,0.,4.8,0.,4.8,,0,0.,4.8,0.,4.8
1979-03-06 08:35:25.460 ,4,0,,0,0.,4.8,0.,4.8,,0,0.,4.8,0.,4.8
1979-03-06 08:35:30.260 ,4,0,,0,1.,4.8,0.,4.8,,0,0.,4.8,1.,4.8
1979-03-06 08:35:35.060 ,0,0,,0,0.,4.8,0.,4.8,,0,0.,4.8,0.,4.8
1979-03-06 08:35:39.860 ,0,0,,0,2.,4.8,0.,4.8,,0,0.,4.8,0.,4.8
1979-03-06 08:35:44.660 ,0,0,,0,0.,4.8,0.,4.8,,0,0.,4.8,0.,4.8
1979-03-06 08:35:49.460 ,0,0,,0,0.,4.8,0.,4.8,,0,0.,4.8,0.,4.8
1979-03-06 08:35:54.260 ,0,0,,0,0.,4.8,0.,4.8,,0,0.,4.8,0.,4.8
1979-03-06 08:35:59.060 ,3,0,,0,0.,4.8,0.,4.8,,0,0.,4.8,0.,4.8
1979-03-06 08:36:03.860 ,3,0,,0,0.,4.8,0.,4.8,,0,0.,4.8,0.,4.8
1979-03-06 08:36:08.660 ,3,0,,0,0.,4.8,0.,4.8,,0,0.,4.8,1.,4.8
1979-03-06 08:36:13.460 ,3,0,,0,3.,4.8,0.,4.8,,0,0.,4.8,0.,4.8
1979-03-06 08:36:18.260 ,3,0,,0,0.,4.8,0.,4.8,,0,0.,4.8,0.,4.8
1979-03-06 08:36:23.060 ,7,0,,0,0.,4.8,0.,4.8,,0,0.,4.8,0.,4.8
1979-03-06 08:36:27.860 ,7,0,,0,1.,4.8,0.,4.8,,0,0.,4.8,0.,4.8
1979-03-06 08:36:32.660 ,7,0,,0,1.,4.8,0.,4.8,,0,0.,4.8,0.,4.8
1979-03-06 08:36:37.460 ,7,0,,0,0.,4.8,0.,4.8,,0,0.,4.8,0.,4.8
1979-03-06 08:36:42.260 ,7,0,,0,0.,4.8,0.,4.8,,0,0.,4.8,0.,4.8
1979-03-06 08:36:47.060 ,4,0,,0,0.,4.8,0.,4.8,,0,0.,4.8,0.,4.8
1979-03-06 08:36:51.860 ,4,0,,0,1.,4.8,0.,4.8,,0,0.,4.8,0.,4.8
1979-03-06 08:36:56.660 ,4,0,,0,0.,4.8,0.,4.8,,0,0.,4.8,1.,4.8
1979-03-06 08:37:01.460 ,4,0,,0,0.,4.8,0.,4.8,,0,0.,4.8,0.,4.8
1979-03-06 08:37:06.260 ,4,0,,0,0.,4.8,0.,4.8,,0,0.,4.8,0.,4.8
1979-03-06 08:37:11.060 ,0,0,,0,0.,4.8,0.,4.8,,0,0.,4.8,0.,4.8
1979-03-06 08:37:15.860 ,0,0,,0,2.,4.8,0.,4.8,,0,0.,4.8,0.,4.8
1979-03-06 08:37:20.660 ,0,0,,0,0.,4.8,0.,4.8,,0,0.,4.8,0.,4.8
1979-03-06 08:37:25.460 ,0,0,,0,0.,4.8,0.,4.8,,0,0.,4.8,0.,4.8
1979-03-06 08:37:30.260 ,0,0,,0,1.,4.8,0.,4.8,,0,0.,4.8,0.,4.8
1979-03-06 08:37:35.060 ,3,0,,0,0.,4.8,0.,4.8,,0,0.,4.8,0.,4.8
1979-03-06 08:37:39.860 ,3,0,,0,0.,4.8,0.,4.8,,0,0.,4.8,0.,4.8
1979-03-06 08:37:44.660 ,3,0,,0,1.,4.8,0.,4.8,,0,0.,4.8,0.,4.8
1979-03-06 08:37:49.460 ,3,0,,0,1.,4.8,0.,4.8,,0,0.,4.8,0.,4.8
1979-03-06 08:37:54.260 ,3,0,,0,1.,4.8,0.,4.8,,0,0.,4.8,0.,4.8
1979-03-06 08:37:59.060 ,7,0,,0,1.,4.8,0.,4.8,,0,0.,4.8,0.,4.8
1979-03-06 08:38:03.860 ,7,0,,0,0.,4.8,0.,4.8,,0,0.,4.8,0.,4.8
1979-03-06 08:38:08.660 ,7,0,,0,3.,4.8,2.,4.8,,0,0.,4.8,0.,4.8
1979-03-06 08:38:13.460 ,7,0,,0,0.,4.8,0.,4.8,,0,0.,4.8,0.,4.8
1979-03-06 08:38:18.260 ,7,0,,0,1.,4.8,0.,4.8,,0,0.,4.8,0.,4.8
1979-03-06 08:38:23.060 ,6,0,,0,0.,4.8,0.,4.8,,0,0.,4.8,0.,4.8
1979-03-06 08:38:27.860 ,6,0,,0,0.,4.8,0.,4.8,,0,0.,4.8,0.,4.8
1979-03-06 08:38:32.660 ,6,0,,0,1.,4.8,0.,4.8,,0,0.,4.8,1.,4.8
1979-03-06 08:38:37.460 ,6,0,,0,0.,4.8,0.,4.8,,0,0.,4.8,0.,4.8
1979-03-06 08:38:42.260 ,6,0,,0,1.,4.8,1.,4.8,,0,0.,4.8,0.,4.8
1979-03-06 08:38:47.060 ,5,0,,0,0.,4.8,0.,4.8,,0,0.,4.8,0.,4.8
1979-03-06 08:38:51.860 ,5,0,,0,1.,4.8,0.,4.8,,0,0.,4.8,0.,4.8
1979-03-06 08:38:56.660 ,5,0,,0,0.,4.8,0.,4.8,,0,0.,4.8,0.,4.8
1979-03-06 08:39:01.460 ,5,0,,0,0.,4.8,0.,4.8,,0,0.,4.8,0.,4.8
1979-03-06 08:39:06.260 ,5,0,,0,0.,4.8,0.,4.8,,0,0.,4.8,0.,4.8
1979-03-06 08:39:11.060 ,4,0,,0,0.,4.8,0.,4.8,,0,0.,4.8,0.,4.8
1979-03-06 08:39:15.860 ,4,0,,0,0.,4.8,0.,4.8,,0,0.,4.8,0.,4.8
1979-03-06 08:39:20.660 ,4,0,,0,1.,4.8,0.,4.8,,0,0.,4.8,0.,4.8
1979-03-06 08:39:25.460 ,4,0,,0,0.,4.8,0.,4.8,,0,0.,4.8,0.,4.8
1979-03-06 08:39:30.260 ,4,0,,0,1.,4.8,0.,4.8,,0,0.,4.8,0.,4.8
1979-03-06 08:39:35.060 ,3,0,,0,1.,4.8,0.,4.8,,0,0.,4.8,1.,4.8
1979-03-06 08:39:39.860 ,3,0,,0,0.,4.8,0.,4.8,,0,0.,4.8,1.,4.8
1979-03-06 08:39:44.660 ,3,0,,0,0.,4.8,0.,4.8,,0,0.,4.8,0.,4.8
1979-03-06 08:39:49.460 ,3,0,,0,0.,4.8,0.,4.8,,0,0.,4.8,0.,4.8
1979-03-06 08:39:54.260 ,3,0,,0,0.,4.8,0.,4.8,,0,0.,4.8,0.,4.8
1979-03-06 08:39:59.060 ,2,0,,0,0.,4.8,0.,4.8,,0,0.,4.8,0.,4.8
1979-03-06 08:40:03.860 ,2,0,,0,0.,4.8,0.,4.8,,0,0.,4.8,0.,4.8
1979-03-06 08:40:08.660 ,2,0,,0,0.,4.8,0.,4.8,,0,0.,4.8,0.,4.8
1979-03-06 08:40:13.460 ,2,0,,0,0.,4.8,0.,4.8,,0,0.,4.8,0.,4.8
1979-03-06 08:40:18.260 ,2,0,,0,0.,4.8,0.,4.8,,0,0.,4.8,0.,4.8
1979-03-06 08:40:23.060 ,1,0,,0,0.,4.8,0.,4.8,,0,0.,4.8,0.,4.8
1979-03-06 08:40:27.860 ,1,0,,0,0.,4.8,0.,4.8,,0,0.,4.8,0.,4.8
1979-03-06 08:40:32.660 ,1,0,,0,1.,4.8,0.,4.8,,0,0.,4.8,1.,4.8
1979-03-06 08:40:37.460 ,1,0,,0,0.,4.8,0.,4.8,,0,0.,4.8,0.,4.8
1979-03-06 08:40:42.260 ,1,0,,0,0.,4.8,0.,4.8,,0,0.,4.8,0.,4.8
1979-03-06 08:40:47.060 ,0,0,,0,0.,4.8,0.,4.8,,0,0.,4.8,0.,4.8
1979-03-06 08:40:51.860 ,0,0,,0,0.,4.8,0.,4.8,,0,0.,4.8,1.,4.8
1979-03-06 08:40:56.660 ,0,0,,0,0.,4.8,0.,4.8,,0,0.,4.8,1.,4.8
1979-03-06 08:41:01.460 ,0,0,,0,0.,4.8,0.,4.8,,0,0.,4.8,0.,4.8
1979-03-06 08:41:06.260 ,0,0,,0,1.,4.8,0.,4.8,,0,0.,4.8,0.,4.8
1979-03-06 08:41:11.060 ,0,0,,0,1.,4.8,0.,4.8,,0,0.,4.8,0.,4.8
1979-03-06 08:41:15.860 ,0,0,,0,0.,4.8,0.,4.8,,0,0.,4.8,0.,4.8
1979-03-06 08:41:20.660 ,0,0,,0,2.,4.8,0.,4.8,,0,0.,4.8,0.,4.8
1979-03-06 08:41:25.460 ,0,0,,0,0.,4.8,0.,4.8,,0,0.,4.8,0.,4.8
1979-03-06 08:41:30.260 ,0,0,,0,0.,4.8,0.,4.8,,0,0.,4.8,0.,4.8
1979-03-06 08:41:35.060 ,1,0,,0,0.,4.8,0.,4.8,,0,0.,4.8,0.,4.8
1979-03-06 08:41:39.860 ,1,0,,0,0.,4.8,0.,4.8,,0,0.,4.8,0.,4.8
1979-03-06 08:41:44.660 ,1,0,,0,1.,4.8,0.,4.8,,0,0.,4.8,0.,4.8
1979-03-06 08:41:49.460 ,1,0,,0,1.,4.8,0.,4.8,,0,0.,4.8,0.,4.8
1979-03-06 08:41:54.260 ,1,0,,0,0.,4.8,0.,4.8,,0,0.,4.8,0.,4.8
1979-03-06 08:41:59.060 ,2,0,,0,0.,4.8,0.,4.8,,0,0.,4.8,0.,4.8
1979-03-06 08:42:03.860 ,2,0,,0,1.,4.8,0.,4.8,,0,0.,4.8,0.,4.8
1979-03-06 08:42:08.660 ,2,0,,0,0.,4.8,0.,4.8,,0,0.,4.8,0.,4.8
1979-03-06 08:42:13.460 ,2,0,,0,0.,4.8,0.,4.8,,0,0.,4.8,0.,4.8
1979-03-06 08:42:18.260 ,2,0,,0,1.,4.8,0.,4.8,,0,0.,4.8,0.,4.8
1979-03-06 08:42:23.060 ,3,0,,0,0.,4.8,0.,4.8,,0,0.,4.8,0.,4.8
1979-03-06 08:42:27.860 ,3,0,,0,1.,4.8,0.,4.8,,0,0.,4.8,0.,4.8
1979-03-06 08:42:32.660 ,3,0,,0,0.,4.8,0.,4.8,,0,0.,4.8,0.,4.8
1979-03-06 08:42:37.460 ,3,0,,0,0.,4.8,0.,4.8,,0,0.,4.8,0.,4.8
1979-03-06 08:42:42.260 ,3,0,,0,1.,4.8,0.,4.8,,0,0.,4.8,0.,4.8
1979-03-06 08:42:47.060 ,4,0,,0,1.,4.8,0.,4.8,,0,0.,4.8,0.,4.8
1979-03-06 08:42:51.860 ,4,0,,0,0.,4.8,0.,4.8,,0,0.,4.8,1.,4.8
1979-03-06 08:42:56.660 ,4,0,,0,1.,4.8,0.,4.8,,0,0.,4.8,0.,4.8
1979-03-06 08:43:01.460 ,4,0,,0,1.,4.8,0.,4.8,,0,0.,4.8,0.,4.8
1979-03-06 08:43:06.260 ,4,0,,0,0.,4.8,0.,4.8,,0,0.,4.8,0.,4.8
1979-03-06 08:43:11.060 ,5,0,,0,0.,4.8,0.,4.8,,0,0.,4.8,0.,4.8
1979-03-06 08:43:15.860 ,5,0,,0,0.,4.8,0.,4.8,,0,0.,4.8,0.,4.8
1979-03-06 08:43:20.660 ,5,0,,0,0.,4.8,0.,4.8,,0,0.,4.8,0.,4.8
1979-03-06 08:43:25.460 ,5,0,,0,0.,4.8,0.,4.8,,0,0.,4.8,0.,4.8
1979-03-06 08:43:30.260 ,5,0,,0,1.,4.8,0.,4.8,,0,0.,4.8,0.,4.8
1979-03-06 08:43:35.060 ,6,0,,0,0.,4.8,0.,4.8,,0,0.,4.8,0.,4.8
1979-03-06 08:43:39.860 ,6,0,,0,0.,4.8,0.,4.8,,0,0.,4.8,0.,4.8
1979-03-06 08:43:44.660 ,6,0,,0,1.,4.8,0.,4.8,,0,0.,4.8,0.,4.8
1979-03-06 08:43:49.460 ,6,0,,0,0.,4.8,0.,4.8,,0,0.,4.8,1.,4.8
1979-03-06 08:43:54.260 ,6,0,,0,0.,4.8,0.,4.8,,0,0.,4.8,0.,4.8
1979-03-06 08:43:59.060 ,7,0,,0,0.,4.8,0.,4.8,,0,0.,4.8,0.,4.8
1979-03-06 08:44:03.860 ,7,0,,0,0.,4.8,0.,4.8,,0,0.,4.8,0.,4.8
1979-03-06 08:44:08.660 ,7,0,,0,1.,4.8,0.,4.8,,0,0.,4.8,0.,4.8
1979-03-06 08:44:13.460 ,7,0,,0,5.,4.8,0.,4.8,,0,0.,4.8,0.,4.8
1979-03-06 08:44:18.260 ,7,0,,0,2.,4.8,0.,4.8,,0,0.,4.8,0.,4.8
1979-03-06 08:44:23.060 ,7,0,,0,4.,4.8,0.,4.8,,0,0.,4.8,0.,4.8
1979-03-06 08:44:27.860 ,7,0,,0,5.,4.8,0.,4.8,,0,0.,4.8,0.,4.8
1979-03-06 08:44:32.660 ,7,0,,0,5.,4.8,0.,4.8,,0,0.,4.8,0.,4.8
1979-03-06 08:44:37.460 ,7,0,,0,0.,4.8,0.,4.8,,0,0.,4.8,0.,4.8
1979-03-06 08:44:42.260 ,7,0,,0,0.,4.8,0.,4.8,,0,0.,4.8,0.,4.8
1979-03-06 08:44:47.060 ,6,0,,0,0.,4.8,0.,4.8,,0,0.,4.8,0.,4.8
1979-03-06 08:44:51.860 ,6,0,,0,0.,4.8,0.,4.8,,0,0.,4.8,0.,4.8
1979-03-06 08:44:56.660 ,6,0,,0,0.,4.8,0.,4.8,,0,0.,4.8,0.,4.8
1979-03-06 08:45:01.460 ,6,0,,0,1.,4.8,0.,4.8,,0,0.,4.8,0.,4.8
1979-03-06 08:45:06.260 ,6,0,,0,1.,4.8,0.,4.8,,0,0.,4.8,0.,4.8
1979-03-06 08:45:11.060 ,5,0,,0,0.,4.8,0.,4.8,,0,0.,4.8,0.,4.8
1979-03-06 08:45:15.860 ,5,0,,0,3.,4.8,0.,4.8,,0,0.,4.8,0.,4.8
1979-03-06 08:45:20.660 ,5,0,,0,1.,4.8,0.,4.8,,0,0.,4.8,0.,4.8
1979-03-06 08:45:25.460 ,5,0,,0,0.,4.8,0.,4.8,,0,0.,4.8,0.,4.8
1979-03-06 08:45:30.260 ,5,0,,0,0.,4.8,0.,4.8,,0,0.,4.8,1.,4.8
1979-03-06 08:45:35.060 ,4,0,,0,0.,4.8,0.,4.8,,0,0.,4.8,0.,4.8
1979-03-06 08:45:39.860 ,4,0,,0,0.,4.8,0.,4.8,,0,0.,4.8,0.,4.8
1979-03-06 08:45:44.660 ,4,0,,0,0.,4.8,0.,4.8,,0,0.,4.8,0.,4.8
1979-03-06 08:45:49.460 ,4,0,,0,0.,4.8,0.,4.8,,0,0.,4.8,2.,4.8
1979-03-06 08:45:54.260 ,4,0,,0,1.,4.8,0.,4.8,,0,0.,4.8,0.,4.8
1979-03-06 08:45:59.060 ,3,0,,0,1.,4.8,0.,4.8,,0,0.,4.8,0.,4.8
1979-03-06 08:46:03.860 ,3,0,,0,3.,4.8,0.,4.8,,0,0.,4.8,0.,4.8
1979-03-06 08:46:08.660 ,3,0,,0,5.,4.8,1.,4.8,,0,0.,4.8,1.,4.8
1979-03-06 08:46:13.460 ,3,0,,0,0.,4.8,0.,4.8,,0,0.,4.8,0.,4.8
1979-03-06 08:46:18.260 ,3,0,,0,0.,4.8,0.,4.8,,0,0.,4.8,0.,4.8
1979-03-06 08:46:23.060 ,2,0,,0,0.,4.8,0.,4.8,,0,0.,4.8,0.,4.8
1979-03-06 08:46:27.860 ,2,0,,0,0.,4.8,0.,4.8,,0,0.,4.8,1.,4.8
1979-03-06 08:46:32.660 ,2,0,,0,1.,4.8,0.,4.8,,0,0.,4.8,1.,4.8
1979-03-06 08:46:37.460 ,2,0,,0,2.,4.8,0.,4.8,,0,0.,4.8,0.,4.8
1979-03-06 08:46:42.260 ,2,0,,0,1.,4.8,1.,4.8,,0,0.,4.8,0.,4.8
1979-03-06 08:46:47.060 ,1,0,,0,1.,4.8,0.,4.8,,0,0.,4.8,1.,4.8
1979-03-06 08:46:51.860 ,1,0,,0,0.,4.8,0.,4.8,,0,0.,4.8,1.,4.8
1979-03-06 08:46:56.660 ,1,0,,0,2.,4.8,0.,4.8,,0,0.,4.8,0.,4.8
1979-03-06 08:47:01.460 ,1,0,,0,0.,4.8,0.,4.8,,0,0.,4.8,1.,4.8
1979-03-06 08:47:06.260 ,1,0,,0,0.,4.8,0.,4.8,,0,0.,4.8,0.,4.8
1979-03-06 08:47:11.060 ,0,0,,0,0.,4.8,0.,4.8,,0,0.,4.8,0.,4.8
1979-03-06 08:47:15.860 ,0,0,,0,1.,4.8,0.,4.8,,0,0.,4.8,0.,4.8
1979-03-06 08:47:20.660 ,0,0,,0,0.,4.8,0.,4.8,,0,0.,4.8,0.,4.8
1979-03-06 08:47:25.460 ,0,0,,0,2.,4.8,0.,4.8,,0,0.,4.8,0.,4.8
1979-03-06 08:47:30.260 ,0,0,,0,0.,4.8,0.,4.8,,0,0.,4.8,1.,4.8
1979-03-06 08:47:35.060 ,0,0,,0,0.,4.8,0.,4.8,,0,0.,4.8,1.,4.8
1979-03-06 08:47:39.860 ,0,0,,0,0.,4.8,0.,4.8,,0,0.,4.8,0.,4.8
1979-03-06 08:47:44.660 ,0,0,,0,1.,4.8,0.,4.8,,0,0.,4.8,0.,4.8
1979-03-06 08:47:49.460 ,0,0,,0,0.,4.8,0.,4.8,,0,0.,4.8,0.,4.8
1979-03-06 08:47:54.260 ,0,0,,0,0.,4.8,0.,4.8,,0,0.,4.8,0.,4.8
1979-03-06 08:47:59.060 ,1,0,,0,1.,4.8,0.,4.8,,0,0.,4.8,0.,4.8
1979-03-06 08:48:03.860 ,1,0,,0,0.,4.8,0.,4.8,,0,0.,4.8,0.,4.8
1979-03-06 08:48:08.660 ,1,0,,0,0.,4.8,0.,4.8,,0,0.,4.8,1.,4.8